Regional Weather Roundup
Issued by NWS

Home | Current Version | Previous Version | Graphics & Text | Print | Product List | Glossary On
Versions: 1 2 3 4 5 6 7 8 9 10 11 12 13 14 15 16 17 18 19 20 21 22 23 24 25 26 27 28 29 30 31 32 33 34 35 36 37 38 39 40 41 42 43 44 45 46 47 48 49 50
313
ASUS43 KBIS 281202
RWRND

NORTH DAKOTA REGIONAL WEATHER ROUNDUP
NATIONAL WEATHER SERVICE BISMARCK ND
700 AM CDT SUN AUG 28 2016

NOTE: "FAIR" INDICATES FEW OR NO CLOUDS BELOW 12,000 FEET WITH NO
SIGNIFICANT WEATHER AND/OR OBSTRUCTIONS TO VISIBILITY.


NDZ001>003-009>011-017-281300-
NORTHWEST NORTH DAKOTA

CITY           SKY/WX    TMP DP  RH WIND       PRES   REMARKS
WILLISTON      CLEAR     60  49  66 SE3       29.83R
6HR MIN TEMP:  58; 6HR MAX TEMP:  69;

MINOT          CLEAR     62  50  64 S3        29.85S
MINOT AFB      CLEAR     54  48  80 E5        29.85R
$$

NDZ018>021-031>035-040>046-281300-
SOUTHWEST NORTH DAKOTA

CITY           SKY/WX    TMP DP  RH WIND       PRES   REMARKS
BISMARCK       CLEAR     57  56  96 NE6       29.89S
6HR MIN TEMP:  56; 6HR MAX TEMP:  58;

DICKINSON      CLEAR     54  50  86 CALM      29.88R
GARRISON         N/A     57  53  86 E5        29.88R
6HR MIN TEMP:  55; 6HR MAX TEMP:  60;

HETTINGER ARPT CLEAR     49  47  93 CALM      29.91R
$$

NDZ004>008-012>016-024-026-027-054-281300-
NORTHEAST NORTH DAKOTA

CITY           SKY/WX    TMP DP  RH WIND       PRES   REMARKS
GRAND FORKS    CLEAR     58  56  93 SE7       29.98S
GRND FRKS AFB  CLOUDY    57  56  97 S6        29.98S
DEVILS LAKE    CLEAR     61  60  97 SE9       29.95S
$$

NDZ022-023-025-028>030-036>039-047>053-281300-
SOUTHEAST NORTH DAKOTA

CITY           SKY/WX    TMP DP  RH WIND       PRES   REMARKS
FARGO          CLEAR     63  60  90 SE8       30.00R
6HR MIN TEMP:  61; 6HR MAX TEMP:  64;

JAMESTOWN      CLOUDY    62  60  93 SE9       29.96R
$$





USA.gov is the U.S. government's official web portal to all federal, state and local government web resources and services.